Regional Weather Roundup
Issued by NWS Newport/Morehead, NC

Current Version | Previous Version | Text Only | Print | Product List | Glossary On
Versions: 1 2 3 4 5 6 7 8 9 10 11 12 13 14 15 16 17 18 19 20 21 22 23 24 25 26 27 28 29 30 31 32 33 34 35 36 37 38 39 40 41 42 43 44 45 46 47 48 49 50
000 ASUS42 KMHX 211322 RWRMHX WEATHER ROUNDUP FOR EASTERN NORTH CAROLINA NATIONAL WEATHER SERVICE NEWPORT/MOREHEAD CITY NC 900 AM EDT SUN SEP 21 2014 NOTE: "FAIR" INDICATES FEW OR NO CLOUDS BELOW 12,000 FEET WITH NO SIGNIFICANT WEATHER AND/OR OBSTRUCTIONS TO VISIBILITY NCZ015>017-031-032-045>047-102-103-211400- NORTH COAST CITY SKY/WX TMP DP RH WIND PRES REMARKS EDENTON DRIZZLE 71 70 95 N13G18 29.80S ELIZABETH CITY LGT RAIN 72 70 94 NW13 29.78F KITTY HAWK CLOUDY 72 71 97 N12G24 29.73S MANTEO CLOUDY 72 70 95 N15G22 29.74S $$ NCZ045>047-081-094-103-104-211400- CENTRAL COAST CITY SKY/WX TMP DP RH WIND PRES REMARKS FRISCO CLOUDY 71 71 100 N9 29.73R SWANQUARTER N/A 72 N/A N/A N5G14 29.74S $$ NCZ095-097-098-100-101-211400- SOUTHERN COAST CITY SKY/WX TMP DP RH WIND PRES REMARKS BEAUFORT CLOUDY 74 70 87 N14G22 29.77S CEDAR ISLAND N/A 73 N/A N/A NW17G25 29.79S JACKSONVILLE CLOUDY 71 67 87 NW14 29.82R NEWPORT NOT AVBL PINEY ISLAND CLOUDY 75 70 84 N17 29.75F WILMINGTON CLOUDY 71 68 90 NW13 29.86R $$ NCZ011>013-027>030-043-044-078>080-089-090>093-098-211400- COASTAL PLAIN CITY SKY/WX TMP DP RH WIND PRES REMARKS AHOSKIE CLOUDY 68 65 90 N5 29.85F CLINTON CLOUDY 68 65 89 NW5 29.90R ELIZABETHTOWN PTSUNNY 67 65 91 NW8 29.89S GOLDSBORO CLOUDY 72 69 90 NW1 29.85S GREENVILLE CLOUDY 70 68 94 N8 29.87S HAVELOCK CLOUDY 72 69 90 N16 29.79F KENANSVILLE CLOUDY 70 65 85 N6 29.87S KINSTON CLOUDY 70 66 88 N8G17 29.86S NEW BERN CLOUDY 72 68 87 NW10G20 29.81S RICHLANDS CLOUDY 70 64 83 NW8 29.85R ROANOKE RAPIDS NOT AVBL ROCKY MOUNT PTSUNNY 68 64 87 N12 29.88R WASHINGTON CLOUDY 69 67 95 NW6 29.82S WHITEVILLE PTSUNNY 68 64 86 NW3 29.90S $$ AMZ130-135-150-152-154-156-158-170-250-252-270-ANZ085-086-088-633-658-670-211400- MARINE OBSERVATIONS STATION/POSITION TIME TEMP WIND PRES WAVE SWELL AIR SEA DIR/SP/G HT/PER HT/PER (UTC) (F) (DEG/KT/KT) (MB) (FT/S) (FT/S) CHESAPEAKE LIGHT 1300 72 20/ 17/ 18 1009.0 BUOY 44014 1300 73 70 30/ 12/ 16 1006.5 7/ 8 7/ 8 DUCK 1300 71 74 350/ 22/ 24 1006.3 2E DUCK 1300 N/A 6/ 9 2/11 OREGON INLET 1300 72 74 350/ 13/ 19 1006.3 BUOY 44095 1300 74 N/A 8/ 8 2/11 20E OREGON INLET NOT AVBL HATTERAS CG 1300 73 74 350/ 18/ 21 1007.1 DIAMOND BUOY 1300 76 350/ 19/ 21 1005.0 9/ 9 7/ 9 CAPE LOOKOUT 1300 72 340/ 19/ 23 1007.6 BEAUFORT LAB 1300 72 74 350/ 15/ 21 1007.6 30 SE NEW RIVER 1300 75 82 340/ 23/ 29 1008.0 8/ 6 5 SE WRIGHTSVILL 1300 69 79 320/ 17/ 21 N/A BUOY 41002 1211 80 82 240/ 21/ 25 1008.7 10/ 8 5/13 BUOY 41004 1300 75 81 320/ 16/ 19 1012.7 6/ 7 3/ 9 $$

USA.gov is the U.S. government's official web portal to all federal, state and local government web resources and services.